Vorticity
6 7 9 3 2 16 14 14 12 -4 0 6 4 -8 11 -2 -6 21 10 7 11 9 4 2 7 8 5 4 4 4 4 4 4 4 4 4 3 3 4 3 3 4 4 3 3 3 3 3 3
7 7 3 11 22 -4 -0 9 -0 11 11 8 1 6 15 19 12 6 9 9 7 10 6 4 8 3 7 6 6 5 5 5 5 5 5 5 5 5 6 5 5 4 4 4 4 4 4 4 4
8 7 -2 9 -7 -9 2 7 6 6 12 6 3 7 0 5 2 7 9 12 12 7 3 2 8 3 5 5 5 5 5 5 5 5 5 5 5 5 5 5 5 5 4 5 5 5 5 5 5
9 8 3 13 0 8 8 7 5 2 10 3 -5 -1 8 6 4 6 5 6 11 13 9 6 4 3 4 3 3 3 3 4 4 5 5 5 5 5 4 4 4 4 4 4 5 5 5 5 5
8 8 6 4 1 9 7 8 1 7 7 -8 7 -6 -2 4 3 2 2 5 5 7 6 5 3 4 4 3 3 3 3 4 4 4 4 5 5 6 6 5 5 5 5 5 5 5 5 5 5
7 2 10 5 7 8 14 16 10 -1 7 5 5 4 8 2 2 2 2 3 4 3 4 4 3 4 4 3 3 3 4 4 3 3 4 4 4 4 5 5 4 5 6 5 5 4 4 5 5
8 8 8 3 11 11 4 10 18 18 12 7 2 10 9 4 -0 -0 -3 2 13 6 3 3 3 3 3 3 3 4 3 3 3 3 3 3 3 3 4 5 5 5 4 5 6 5 4 3 4
8 5 5 2 1 2 14 9 -0 3 1 16 11 4 8 4 1 2 4 2 10 2 9 8 4 2 4 4 3 3 3 1 1 2 3 3 2 2 2 3 3 4 4 5 5 5 4 4 3
7 6 3 3 2 2 6 2 9 10 3 3 4 3 -1 2 5 9 5 7 1 3 5 11 5 4 2 4 4 3 3 3 4 3 3 3 4 3 3 3 3 2 3 3 4 4 4 4 3
6 7 8 -1 6 4 5 4 -6 3 1 2 7 8 4 12 9 10 6 6 2 4 6 9 7 3 8 8 9 7 7 8 8 8 8 7 10 10 9 5 5 5 4 3 3 3 3 3 4
5 8 8 6 1 4 -5 2 4 1 3 8 -0 2 5 6 9 -2 9 5 5 5 2 -3 7 13 3 3 5 8 7 5 1 3 7 4 5 -5 14 2 9 13 10 5 4 4 3 3 2
8 6 9 7 6 6 -1 -2 -3 -1 1 1 5 6 2 9 5 11 -4 10 2 6 1 2 3 8 6 4 6 7 5 5 2 4 3 4 4 3 -0 1 10 8 13 15 10 6 6 5 5
6 4 6 7 8 12 5 2 0 -2 -6 -2 -4 0 3 7 8 9 4 5 8 3 3 -1 8 10 12 10 7 6 5 6 3 5 5 5 3 5 9 13 3 8 4 5 11 8 7 6 5
2 2 6 6 10 13 18 20 21 10 1 3 -1 6 5 9 12 7 7 3 3 4 4 -2 8 1 7 6 5 7 9 8 10 5 5 4 7 9 11 13 12 17 15 17 13 13 10 9 9
13 10 13 23 38 13 4 20 33 23 26 19 10 3 4 4 4 7 5 5 10 2 5 2 5 4 2 4 1 1 4 15 22 20 17 15 16 23 15 9 5 5 5 6 7 10 12 12 10
7 17 29 18 -5 5 4 8 -9 15 21 26 31 29 21 9 2 4 5 8 9 5 2 4 4 5 4 8 4 4 9 11 11 13 13 10 9 4 -1 -2 -5 -2 3 7 7 5 3 3 5
11 2 12 17 -1 -5 6 11 5 1 3 14 23 7 8 12 8 3 7 15 8 7 4 4 4 6 5 7 7 6 10 11 11 9 8 6 2 -1 -4 -2 1 6 6 4 6 9 7 3 2
3 12 2 3 -2 1 4 5 0 6 7 6 2 4 8 9 11 10 5 6 14 9 6 6 6 12 11 10 10 12 11 9 7 4 3 1 -3 -1 4 7 5 5 8 9 8 8 6 6 4
7 4 -8 1 4 9 6 7 9 15 19 18 15 16 15 9 6 5 2 11 11 12 8 8 10 10 13 14 10 19 13 16 5 3 0 1 4 6 7 8 7 8 10 10 9 10 12 14 14
3 10 9 10 -2 10 10 5 14 1 17 17 15 16 17 16 11 11 9 13 10 8 5 7 11 15 15 14 15 6 -1 -1 2 2 -4 2 5 5 4 5 8 9 11 10 10 11 13 14 16
7 1 7 5 4 4 14 18 -5 21 6 6 10 11 12 18 17 18 16 16 16 10 10 12 19 12 9 8 3 -10 -0 4 -1 -4 -9 8 8 8 7 9 10 11 12 15 15 15 14 13 14
-5 -5 11 16 4 9 -13 -3 9 6 3 2 4 10 13 14 16 16 11 10 8 10 8 -2 -2 1 6 -0 -12 4 7 9 -2 -7 -9 3 3 13 12 13 14 14 15 14 13 12 14 16 18
31 13 13 10 8 15 8 13 -4 18 0 3 -1 -2 5 -12 2 19 21 18 14 9 10 11 14 2 -12 52 -12 -14 9 -7 6 24 19 19 14 12 11 12 14 15 14 13 13 15 18 21 16
-6 -8 13 17 12 23 7 -2 20 9 -8 -2 -11 1 4 4 4 15 16 21 27 14 11 7 12 14 3 12 24 10 10 8 12 8 11 14 13 12 11 14 15 15 15 13 13 16 11 7 7
-6 13 11 16 11 -1 32 18 -7 -10 16 -9 -2 -1 -6 3 4 9 15 9 23 24 16 4 2 -1 4 1 3 -3 4 11 4 5 11 11 11 10 11 13 14 13 11 12 11 8 5 -2 7
3 23 -16 8 1 2 8 12 -6 10 7 -11 20 -16 0 6 8 10 14 15 11 20 13 8 9 -1 0 11 -0 -2 16 8 5 9 11 9 10 11 8 9 12 10 10 11 4 8 8 17 21
5 18 19 9 19 13 10 21 24 1 -0 8 3 -24 7 9 5 9 16 26 6 19 14 5 0 5 1 16 20 26 4 5 6 9 10 8 8 9 10 9 9 12 9 8 6 9 15 4 -2
13 6 10 10 10 10 9 12 -22 29 2 25 -19 -7 6 11 7 13 14 27 7 16 13 4 3 6 4 -6 30 14 3 1 5 9 9 7 8 8 7 9 10 10 13 14 11 5 -2 4 7
6 3 13 3 -4 -0 11 3 5 -11 13 -1 -1 -3 18 7 13 14 8 27 15 19 8 7 1 0 14 -10 18 4 5 1 5 10 10 8 8 8 8 9 9 10 13 13 16 7 2 5 5
9 -2 -27 14 17 0 -12 -8 66 18 -9 3 -6 12 8 12 10 19 15 19 12 15 10 5 -3 1 -4 38 18 3 2 -1 6 11 11 8 7 7 7 8 11 10 11 15 11 4 10 5 6
Height
3174 3176 3177 3178 3184 3182 3183 3186 3186 3187 3188 3188 3190 3191 3192 3192 3193 3197 3193 3193 3193 3193 3194 3196 3197 3196 3198 3199 3201 3202 3204 3205 3206 3207 3207 3208 3208 3209 3209 3209 3210 3210 3210 3210 3210 3209 3209 3209 3209
3175 3176 3178 3178 3181 3180 3183 3183 3185 3186 3187 3188 3190 3191 3192 3192 3193 3193 3193 3193 3193 3194 3195 3196 3198 3198 3199 3200 3201 3203 3204 3205 3206 3206 3206 3207 3207 3209 3209 3210 3210 3210 3209 3210 3209 3209 3209 3209 3209
3176 3177 3179 3179 3179 3181 3183 3182 3183 3184 3186 3187 3190 3191 3192 3192 3192 3193 3193 3193 3194 3194 3196 3197 3198 3198 3199 3200 3201 3202 3203 3204 3205 3205 3206 3207 3207 3207 3208 3209 3209 3209 3209 3209 3209 3209 3208 3208 3208
3176 3179 3181 3181 3181 3182 3183 3185 3185 3185 3186 3187 3189 3191 3192 3192 3191 3191 3192 3193 3193 3193 3194 3196 3197 3197 3198 3199 3200 3201 3202 3203 3203 3204 3204 3205 3206 3206 3206 3207 3207 3208 3208 3208 3208 3209 3209 3208 3208
3178 3179 3179 3181 3182 3182 3183 3184 3185 3186 3186 3187 3188 3190 3191 3191 3191 3191 3192 3192 3192 3193 3193 3194 3195 3196 3197 3198 3199 3200 3201 3202 3202 3203 3203 3204 3205 3205 3206 3206 3206 3206 3206 3206 3207 3207 3207 3207 3206
3178 3181 3183 3183 3183 3183 3183 3183 3184 3186 3187 3188 3188 3188 3190 3191 3191 3191 3191 3192 3192 3192 3192 3194 3195 3196 3197 3198 3198 3198 3199 3200 3200 3200 3201 3202 3202 3202 3203 3204 3204 3204 3204 3204 3204 3203 3203 3204 3204
3179 3181 3182 3183 3182 3183 3183 3183 3185 3185 3187 3189 3190 3190 3191 3191 3191 3191 3191 3191 3192 3193 3193 3193 3194 3195 3196 3196 3196 3196 3197 3197 3198 3198 3198 3199 3200 3200 3201 3201 3201 3201 3201 3202 3202 3201 3200 3201 3201
3177 3179 3182 3183 3183 3183 3182 3183 3183 3185 3188 3188 3189 3191 3191 3191 3191 3191 3191 3191 3191 3193 3194 3195 3195 3195 3195 3196 3196 3196 3196 3196 3196 3196 3196 3196 3196 3196 3197 3197 3197 3197 3196 3197 3198 3198 3198 3197 3197
3176 3179 3179 3180 3181 3182 3182 3182 3184 3184 3186 3188 3189 3189 3191 3191 3191 3191 3191 3191 3191 3192 3192 3193 3194 3194 3195 3195 3194 3194 3194 3194 3194 3194 3194 3194 3194 3194 3194 3193 3193 3193 3192 3192 3192 3193 3193 3193 3193
3175 3175 3178 3179 3179 3180 3181 3181 3181 3184 3184 3185 3188 3190 3189 3190 3190 3191 3191 3190 3190 3190 3191 3191 3191 3191 3192 3191 3190 3190 3190 3191 3191 3192 3192 3191 3191 3191 3191 3191 3190 3190 3189 3187 3186 3187 3187 3187 3188
3173 3176 3176 3176 3177 3178 3180 3180 3180 3180 3182 3184 3185 3187 3188 3189 3189 3190 3190 3190 3190 3189 3189 3189 3189 3188 3188 3188 3187 3187 3186 3187 3187 3187 3187 3187 3186 3185 3188 3186 3186 3186 3185 3184 3183 3182 3182 3182 3183
3172 3172 3173 3175 3175 3176 3177 3178 3179 3179 3180 3180 3181 3182 3184 3185 3186 3188 3188 3188 3188 3188 3187 3186 3186 3185 3184 3183 3183 3183 3183 3182 3181 3180 3180 3180 3179 3179 3180 3180 3180 3179 3179 3178 3178 3178 3177 3177 3177
3171 3171 3171 3172 3172 3173 3173 3174 3175 3175 3177 3177 3178 3179 3180 3181 3182 3183 3184 3185 3185 3185 3184 3184 3183 3181 3181 3180 3179 3177 3177 3176 3175 3174 3173 3173 3173 3173 3173 3173 3172 3172 3172 3171 3170 3170 3169 3168 3169
3169 3169 3168 3169 3170 3169 3168 3168 3170 3171 3172 3174 3174 3174 3174 3175 3177 3179 3180 3180 3180 3180 3180 3180 3180 3178 3177 3176 3176 3174 3173 3172 3171 3169 3168 3167 3167 3165 3166 3166 3165 3164 3164 3163 3162 3162 3161 3161 3161
3167 3166 3166 3166 3166 3167 3165 3167 3165 3164 3164 3165 3167 3167 3169 3170 3171 3173 3174 3174 3174 3175 3176 3176 3175 3173 3172 3171 3171 3170 3168 3166 3164 3164 3163 3162 3161 3161 3160 3159 3159 3158 3157 3156 3155 3154 3153 3152 3152
3165 3164 3164 3164 3164 3165 3164 3164 3162 3162 3162 3161 3163 3162 3161 3163 3165 3166 3167 3168 3168 3168 3169 3170 3169 3168 3166 3166 3165 3163 3162 3162 3159 3158 3157 3156 3155 3155 3154 3153 3152 3151 3150 3149 3147 3146 3145 3143 3141
3161 3162 3163 3163 3162 3162 3163 3162 3161 3160 3159 3159 3159 3159 3159 3159 3160 3161 3161 3162 3162 3163 3163 3163 3162 3161 3160 3159 3158 3157 3156 3154 3153 3153 3152 3151 3150 3150 3148 3147 3145 3143 3141 3139 3138 3136 3135 3134 3131
3160 3159 3160 3161 3163 3161 3160 3159 3158 3157 3156 3156 3157 3158 3156 3156 3156 3156 3157 3156 3156 3155 3155 3154 3154 3154 3154 3154 3153 3151 3150 3150 3148 3148 3147 3146 3145 3143 3141 3138 3136 3134 3131 3128 3125 3123 3122 3121 3119
3159 3159 3158 3159 3159 3158 3158 3156 3156 3154 3152 3151 3152 3155 3155 3153 3152 3150 3150 3150 3149 3148 3147 3147 3147 3147 3147 3147 3145 3147 3144 3144 3143 3142 3141 3139 3137 3134 3131 3128 3124 3121 3119 3115 3112 3110 3109 3107 3104
3155 3156 3156 3156 3156 3155 3154 3153 3154 3153 3152 3148 3147 3149 3150 3149 3148 3146 3145 3143 3142 3142 3142 3142 3142 3141 3141 3141 3140 3139 3140 3139 3136 3135 3133 3131 3128 3125 3122 3119 3115 3111 3108 3105 3101 3098 3096 3095 3093
3153 3153 3154 3155 3153 3153 3152 3149 3150 3151 3150 3149 3145 3145 3144 3144 3143 3141 3140 3139 3138 3138 3137 3137 3137 3135 3134 3133 3133 3132 3130 3130 3128 3128 3125 3122 3118 3114 3111 3107 3103 3098 3095 3092 3089 3087 3084 3083 3083
3151 3152 3153 3151 3151 3151 3150 3149 3147 3149 3147 3146 3144 3142 3140 3140 3139 3137 3136 3134 3132 3132 3132 3130 3131 3129 3127 3126 3126 3126 3122 3120 3119 3116 3114 3110 3106 3102 3099 3095 3090 3086 3082 3079 3077 3075 3072 3069 3070
3149 3148 3149 3148 3148 3147 3148 3148 3145 3144 3145 3142 3140 3139 3138 3136 3134 3132 3128 3127 3125 3124 3123 3122 3121 3119 3119 3116 3115 3113 3113 3111 3109 3108 3107 3102 3096 3090 3086 3081 3077 3074 3071 3069 3066 3064 3063 3061 3060
3146 3146 3144 3144 3144 3142 3142 3143 3140 3140 3140 3138 3135 3135 3135 3132 3130 3127 3122 3119 3117 3116 3116 3115 3113 3111 3108 3108 3106 3104 3102 3101 3100 3099 3097 3092 3088 3082 3078 3074 3069 3066 3063 3061 3059 3058 3056 3054 3052
3142 3143 3143 3140 3140 3135 3135 3135 3134 3135 3135 3133 3131 3131 3129 3125 3122 3120 3117 3113 3109 3108 3109 3108 3106 3103 3103 3101 3099 3099 3097 3094 3093 3091 3088 3084 3081 3078 3072 3067 3062 3059 3056 3054 3053 3051 3049 3047 3046
3137 3139 3139 3135 3134 3133 3134 3131 3130 3131 3130 3128 3127 3126 3124 3119 3115 3112 3110 3106 3103 3102 3102 3102 3100 3097 3095 3094 3092 3091 3089 3088 3084 3081 3079 3076 3073 3070 3065 3061 3056 3052 3050 3048 3046 3045 3043 3041 3040
3135 3135 3135 3134 3132 3133 3129 3126 3127 3127 3125 3124 3122 3121 3117 3112 3108 3103 3101 3098 3097 3095 3096 3095 3093 3090 3088 3086 3084 3082 3080 3078 3075 3072 3069 3066 3062 3059 3056 3053 3049 3045 3042 3040 3039 3038 3036 3036 3035
3134 3134 3133 3133 3130 3126 3124 3124 3123 3122 3122 3121 3119 3115 3110 3104 3100 3095 3091 3089 3090 3089 3089 3088 3086 3083 3080 3079 3076 3073 3072 3069 3066 3062 3059 3056 3054 3051 3047 3045 3042 3038 3035 3034 3032 3031 3030 3028 3026
3132 3132 3132 3130 3129 3127 3120 3117 3117 3117 3117 3115 3113 3107 3102 3097 3093 3089 3085 3082 3081 3082 3082 3080 3077 3074 3073 3070 3067 3065 3063 3060 3057 3054 3051 3048 3046 3043 3040 3036 3033 3030 3027 3025 3023 3022 3020 3018 3016
3129 3128 3130 3128 3127 3124 3119 3109 3110 3112 3110 3107 3104 3100 3095 3090 3087 3082 3079 3076 3073 3074 3074 3073 3070 3067 3065 3061 3057 3057 3055 3051 3048 3045 3042 3039 3036 3033 3030 3029 3026 3023 3019 3016 3014 3012 3010 3007 3005